When you browse on this site, cookies collect data to enhance your experience and personalize the content and advertising you see.
Visit our Privacy Policy to learn more. By continuing to use the site, you agree to this use of cookies and data.
  • In Sweden
  • List of Countries
  • For 7 days
  • Water Temperature
  • Weather Map
  • Weather Widgets
  • user-avatar
    Login

    Hourly Weather Mendoza

    Today, 20 September, Friday

    Time Temperature Precipitation Wind Pressure Humidity
    00:00 +10°C° 0 mm 1 mps 701 mmHg 19%
    01:00 +9°C° 0 mm 1 mps 701 mmHg 20%
    02:00 +8°C° 0 mm 0 mps 701 mmHg 21%
    03:00 +7°C° 0 mm 0 mps 701 mmHg 22%
    04:00 +7°C° 0 mm 0 mps 700 mmHg 23%
    05:00 +9°C° 0 mm 1 mps 701 mmHg 20%
    06:00 +11°C° 0 mm 1 mps 701 mmHg 18%
    07:00 +12°C° 0 mm 1 mps 702 mmHg 15%
    08:00 +13°C° 0 mm 2 mps 702 mmHg 14%
    09:00 +14°C° 0 mm 3 mps 702 mmHg 13%
    10:00 +15°C° 0 mm 4 mps 702 mmHg 12%
    11:00 +17°C° 0 mm 4 mps 701 mmHg 11%
    12:00 +17°C° 0 mm 5 mps 701 mmHg 11%
    13:00 +19°C° 0 mm 5 mps 700 mmHg 11%
    14:00 +19°C° 0 mm 5 mps 700 mmHg 11%
    15:00 +19°C° 0 mm 4 mps 700 mmHg 11%
    16:00 +20°C° 0 mm 4 mps 700 mmHg 11%
    17:00 +18°C° 0 mm 3 mps 700 mmHg 12%
    18:00 +17°C° 0 mm 3 mps 700 mmHg 14%
    19:00 +14°C° 0 mm 3 mps 701 mmHg 16%
    20:00 +15°C° 0 mm 2 mps 701 mmHg 17%
    21:00 +14°C° 0 mm 2 mps 701 mmHg 18%
    22:00 +13°C° 0 mm 1 mps 701 mmHg 19%
    23:00 +12°C° 0 mm 1 mps 700 mmHg 20%

    Tomorrow, 21 September, Saturday

    Time Temperature Precipitation Wind Pressure Humidity
    00:00 +11°C° 0 mm 1 mps 700 mmHg 21%
    01:00 +11°C° 0 mm 1 mps 699 mmHg 22%
    02:00 +10°C° 0 mm 1 mps 699 mmHg 23%
    03:00 +9°C° 0 mm 0 mps 699 mmHg 23%
    04:00 +8°C° 0 mm 0 mps 699 mmHg 24%
    05:00 +11°C° 0 mm 1 mps 700 mmHg 21%
    06:00 +12°C° 0 mm 1 mps 700 mmHg 19%
    07:00 +14°C° 0 mm 1 mps 701 mmHg 16%
    08:00 +16°C° 0 mm 1 mps 701 mmHg 15%
    09:00 +17°C° 0 mm 2 mps 701 mmHg 15%
    10:00 +18°C° 0 mm 2 mps 701 mmHg 14%
    11:00 +19°C° 0 mm 2 mps 701 mmHg 13%
    12:00 +20°C° 0 mm 2 mps 701 mmHg 13%
    13:00 +21°C° 0 mm 2 mps 700 mmHg 12%
    14:00 +23°C° 0 mm 2 mps 700 mmHg 11%
    15:00 +23°C° 0 mm 1 mps 700 mmHg 11%
    16:00 +23°C° 0 mm 1 mps 700 mmHg 11%
    17:00 +22°C° 0 mm 1 mps 700 mmHg 12%
    18:00 +20°C° 0 mm 1 mps 700 mmHg 14%
    19:00 +17°C° 0 mm 2 mps 701 mmHg 16%
    20:00 +16°C° 0 mm 1 mps 701 mmHg 18%
    21:00 +15°C° 0 mm 1 mps 701 mmHg 20%
    22:00 +13°C° 0 mm 0 mps 701 mmHg 23%
    23:00 +14°C° 0 mm 1 mps 701 mmHg 22%

    Day after tomorrow, 22 September, Sunday

    Time Temperature Precipitation Wind Pressure Humidity
    00:00 +14°C° 0 mm 2 mps 701 mmHg 22%
    01:00 +14°C° 0 mm 2 mps 700 mmHg 21%
    02:00 +13°C° 0 mm 2 mps 700 mmHg 23%
    03:00 +13°C° 0 mm 2 mps 700 mmHg 24%
    04:00 +12°C° 0 mm 2 mps 700 mmHg 25%
    05:00 +13°C° 0 mm 2 mps 700 mmHg 23%
    06:00 +14°C° 0 mm 2 mps 700 mmHg 22%
    07:00 +15°C° 0 mm 2 mps 701 mmHg 21%
    08:00 +16°C° 0 mm 2 mps 701 mmHg 20%
    09:00 +17°C° 0 mm 3 mps 701 mmHg 20%
    10:00 +19°C° 0 mm 3 mps 701 mmHg 20%
    11:00 +20°C° 0 mm 2 mps 700 mmHg 18%
    12:00 +21°C° 0 mm 2 mps 700 mmHg 17%
    13:00 +23°C° 0 mm 1 mps 699 mmHg 16%
    14:00 +23°C° 0 mm 1 mps 699 mmHg 16%
    15:00 +24°C° 0 mm 1 mps 698 mmHg 15%
    16:00 +24°C° 0 mm 1 mps 698 mmHg 15%
    17:00 +22°C° 0 mm 1 mps 698 mmHg 18%
    18:00 +21°C° 0 mm 1 mps 698 mmHg 20%
    19:00 +20°C° 0 mm 1 mps 699 mmHg 22%
    20:00 +19°C° 0 mm 1 mps 699 mmHg 24%
    21:00 +19°C° 0 mm 1 mps 699 mmHg 25%
    22:00 +17°C° 0 mm 2 mps 699 mmHg 27%
    23:00 +16°C° 0 mm 2 mps 699 mmHg 31%

    23 September, Monday

    Time Temperature Precipitation Wind Pressure Humidity
    00:00 +16°C° 0 mm 2 mps 699 mmHg 34%
    01:00 +15°C° 0 mm 2 mps 699 mmHg 38%
    02:00 +14°C° 0 mm 3 mps 699 mmHg 37%
    03:00 +14°C° 0 mm 3 mps 700 mmHg 35%
    04:00 +14°C° 0 mm 4 mps 700 mmHg 34%
    05:00 +15°C° 0 mm 4 mps 701 mmHg 32%
    06:00 +17°C° 0 mm 4 mps 702 mmHg 29%
    07:00 +19°C° 0 mm 4 mps 703 mmHg 26%
    08:00 +20°C° 0 mm 5 mps 703 mmHg 24%
    09:00 +22°C° 0 mm 5 mps 704 mmHg 23%
    10:00 +23°C° 0 mm 6 mps 705 mmHg 21%
    11:00 +25°C° 0 mm 5 mps 704 mmHg 20%
    12:00 +25°C° 0 mm 5 mps 704 mmHg 20%
    13:00 +26°C° 0 mm 4 mps 704 mmHg 20%
    14:00 +26°C° 0 mm 4 mps 704 mmHg 20%
    15:00 +26°C° 0 mm 4 mps 704 mmHg 20%
    16:00 +26°C° 0 mm 3 mps 704 mmHg 20%
    17:00 +24°C° 0 mm 3 mps 704 mmHg 23%
    18:00 +22°C° 0 mm 3 mps 704 mmHg 25%
    19:00 +20°C° 0 mm 3 mps 705 mmHg 28%
    20:00 +19°C° 0 mm 2 mps 705 mmHg 30%
    21:00 +19°C° 0 mm 1 mps 705 mmHg 32%
    22:00 +18°C° 0 mm 1 mps 705 mmHg 34%
    23:00 +16°C° 0 mm 1 mps 705 mmHg 36%

    24 September, Tuesday

    Time Temperature Precipitation Wind Pressure Humidity
    00:00 +14°C° 0 mm 0 mps 704 mmHg 37%
    01:00 +14°C° 0 mm 0 mps 704 mmHg 38%
    02:00 +14°C° 0 mm 1 mps 704 mmHg 38%
    03:00 +14°C° 0 mm 1 mps 704 mmHg 38%
    04:00 +14°C° 0 mm 1 mps 703 mmHg 37%
    05:00 +15°C° 0 mm 1 mps 704 mmHg 33%
    06:00 +18°C° 0 mm 1 mps 704 mmHg 30%
    07:00 +18°C° 0 mm 2 mps 704 mmHg 26%
    08:00 +19°C° 0 mm 2 mps 704 mmHg 24%
    09:00 +21°C° 0 mm 2 mps 704 mmHg 22%
    10:00 +23°C° 0 mm 2 mps 704 mmHg 20%
    11:00 +24°C° 0 mm 3 mps 703 mmHg 20%
    12:00 +25°C° 0 mm 3 mps 703 mmHg 19%
    13:00 +27°C° 0 mm 4 mps 702 mmHg 18%
    14:00 +27°C° 0 mm 4 mps 702 mmHg 18%
    15:00 +27°C° 0 mm 4 mps 702 mmHg 17%
    16:00 +28°C° 0 mm 4 mps 701 mmHg 17%
    17:00 +26°C° 0 mm 3 mps 702 mmHg 19%
    18:00 +24°C° 0 mm 3 mps 702 mmHg 21%
    19:00 +23°C° 0 mm 2 mps 702 mmHg 23%
    20:00 +21°C° 0 mm 2 mps 702 mmHg 25%
    21:00 +21°C° 0 mm 1 mps 702 mmHg 27%
    22:00 +20°C° 0 mm 1 mps 702 mmHg 29%
    23:00 +19°C° 0 mm 1 mps 702 mmHg 30%

    25 September, Wednesday

    Time Temperature Precipitation Wind Pressure Humidity
    00:00 +18°C° 0 mm 1 mps 702 mmHg 31%
    01:00 +18°C° 0 mm 1 mps 701 mmHg 32%
    02:00 +16°C° 0 mm 1 mps 701 mmHg 33%
    03:00 +15°C° 0 mm 1 mps 701 mmHg 34%
    04:00 +15°C° 0 mm 1 mps 701 mmHg 36%
    05:00 +16°C° 0 mm 1 mps 701 mmHg 32%
    06:00 +19°C° 0 mm 1 mps 702 mmHg 29%
    07:00 +20°C° 0 mm 2 mps 702 mmHg 26%
    08:00 +21°C° 0 mm 2 mps 702 mmHg 24%
    09:00 +24°C° 0 mm 2 mps 702 mmHg 22%
    10:00 +26°C° 0 mm 2 mps 702 mmHg 20%
    11:00 +27°C° 0 mm 3 mps 701 mmHg 18%
    12:00 +29°C° 0 mm 4 mps 701 mmHg 17%
    13:00 +30°C° 0 mm 5 mps 700 mmHg 15%
    14:00 +30°C° 0 mm 5 mps 700 mmHg 15%
    15:00 +30°C° 0 mm 5 mps 699 mmHg 15%
    16:00 +30°C° 0 mm 5 mps 699 mmHg 15%
    17:00 +28°C° 0 mm 5 mps 699 mmHg 18%
    18:00 +27°C° 0 mm 4 mps 699 mmHg 20%
    19:00 +25°C° 0 mm 3 mps 699 mmHg 23%
    20:00 +24°C° 0 mm 3 mps 699 mmHg 25%
    21:00 +23°C° 0 mm 2 mps 699 mmHg 27%
    22:00 +21°C° 0 mm 1 mps 699 mmHg 29%
    23:00 +21°C° 0 mm 1 mps 699 mmHg 29%
    Show more